CW9386 Weather Reports


Display with metric or nautical units.
time (UTC)temp
F
wind
direction
speed
MPH
gust
MPH
rain 1hr
in
rain 24hr
in
rain mn
in
humidity
%
barometer
mb
20260510230651 87 149 6.0 11.0 0.00 0.00 0.00 15 1015.9
20260510225642 87 158 5.0 10.0 0.00 0.00 0.00 15 1015.7
20260510224650 88 143 2.0 6.0 0.00 0.00 0.00 13 1015.6
20260510223645 88 184 2.0 7.0 0.00 0.00 0.00 14 1015.4
20260510222639 88 142 2.0 7.0 0.00 0.00 0.00 14 1015.5
20260510221649 88 153 0.0 11.0 0.00 0.00 0.00 13 1015.5
20260510220656 89 80 12.0 20.0 0.00 0.00 0.00 15 1015.6
20260510215649 90 360 10.0 14.0 0.00 0.00 0.00 14 1015.5
20260510214646 89 5 8.0 12.0 0.00 0.00 0.00 10 1015.7
20260510213639 88 11 10.0 13.0 0.00 0.00 0.00 9 1015.7
20260510212636 89 324 4.0 13.0 0.00 0.00 0.00 10 1015.8
20260510211653 90 319 2.0 11.0 0.00 0.00 0.00 9 1015.9
20260510205647 91 320 2.0 11.0 0.00 0.00 0.00 9 1016.0
20260510204646 91 295 5.0 10.0 0.00 0.00 0.00 10 1016.1
20260510203641 91 282 4.0 10.0 0.00 0.00 0.00 10 1016.2
20260510202650 91 36 4.0 12.0 0.00 0.00 0.00 9 1016.2
20260510200641 90 37 7.0 17.0 0.00 0.00 0.00 9 1016.4
20260510194653 91 5 11.0 14.0 0.00 0.00 0.00 10 1016.4
20260510193646 90 94 2.0 10.0 0.00 0.00 0.00 10 1016.4
20260510192642 90 328 4.0 9.0 0.00 0.00 0.00 11 1016.4
20260510190634 91 319 6.0 11.0 0.00 0.00 0.00 11 1016.6
20260510184649 91 53 4.0 23.0 0.00 0.00 0.00 11 1016.7
20260510183645 91 13 1.0 7.0 0.00 0.00 0.00 11 1016.9
20260510182638 91 80 3.0 10.0 0.00 0.00 0.00 11 1016.9
20260510181638 90 82 4.0 8.0 0.00 0.00 0.00 11 1017.0
20260510180632 90 38 4.0 12.0 0.00 0.00 0.00 11 1017.1
20260510175645 90 29 4.0 10.0 0.00 0.00 0.00 11 1017.2
20260510174634 89 56 2.0 12.0 0.00 0.00 0.00 11 1017.3
20260510173632 89 5 5.0 10.0 0.00 0.00 0.00 12 1017.4
20260510172643 88 319 1.0 13.0 0.00 0.00 0.00 12 1017.3
20260510171634 88 34 1.0 11.0 0.00 0.00 0.00 12 1017.4
20260510170636 87 32 3.0 15.0 0.00 0.00 0.00 13 1017.2
20260510165641 87 161 8.0 14.0 0.00 0.00 0.00 13 1017.2
20260510164632 86 34 8.0 17.0 0.00 0.00 0.00 14 1017.1
20260510162644 85 44 10.0 15.0 0.00 0.00 0.00 14 1016.9
20260510161642 85 63 10.0 16.0 0.00 0.00 0.00 14 1016.8
20260510160641 84 56 9.0 19.0 0.00 0.00 0.00 15 1016.8
20260510154648 84 24 10.0 16.0 0.00 0.00 0.00 15 1016.7
20260510153644 84 38 9.0 15.0 0.00 0.00 0.00 15 1016.4
20260510152643 83 55 11.0 17.0 0.00 0.00 0.00 15 1016.3
20260510151636 83 50 9.0 16.0 0.00 0.00 0.00 16 1016.5
20260510150632 82 9 12.0 15.0 0.00 0.00 0.00 16 1016.6
20260510145636 81 29 7.0 13.0 0.00 0.00 0.00 16 1016.6
20260510144630 78 67 9.0 13.0 0.00 0.00 0.00 17 1016.7
20260510143649 76 290 3.0 5.0 0.00 0.00 0.00 19 1016.5
20260510142642 74 350 3.0 4.0 0.00 0.00 0.00 19 1016.4
20260510141630 73 5 5.0 9.0 0.00 0.00 0.00 20 1016.3
20260510140626 72 33 5.0 11.0 0.00 0.00 0.00 21 1016.2
20260510135644 71 355 5.0 10.0 0.00 0.00 0.00 21 1016.3
20260510134638 70 19 7.0 12.0 0.00 0.00 0.00 21 1016.2
20260510133626 69 349 6.0 11.0 0.00 0.00 0.00 22 1015.5
20260510132645 68 5 3.0 8.0 0.00 0.00 0.00 23 1015.3
20260510131632 67 360 4.0 6.0 0.00 0.00 0.00 24 1015.3
20260510130629 67 348 3.0 5.0 0.00 0.00 0.00 24 1015.1
20260510125628 68 348 3.0 4.0 0.00 0.00 0.00 23 1015.2
20260510124626 68 360 2.0 4.0 0.00 0.00 0.00 22 1015.2
20260510123640 69 319 1.0 5.0 0.00 0.00 0.00 21 1015.2
20260510122634 69 19 2.0 8.0 0.00 0.00 0.00 21 1014.9
20260510121625 70 34 4.0 9.0 0.00 0.00 0.00 20 1014.6
20260510120638 70 18 4.0 8.0 0.00 0.00 0.00 20 1014.5
20260510115631 70 44 4.0 8.0 0.00 0.00 0.00 20 1014.3
20260510114629 70 20 5.0 7.0 0.00 0.00 0.00 20 1014.4
20260510113642 70 38 4.0 8.0 0.00 0.00 0.00 20 1014.3
20260510112632 70 36 4.0 8.0 0.00 0.00 0.00 19 1014.2
20260510111643 71 26 5.0 9.0 0.00 0.00 0.00 19 1014.1
20260510110623 71 19 4.0 9.0 0.00 0.00 0.00 19 1014.2
20260510105638 71 36 4.0 7.0 0.00 0.00 0.00 19 1014.2
20260510104634 70 49 4.0 6.0 0.00 0.00 0.00 20 1014.1
20260510102628 67 36 0.0 3.0 0.00 0.00 0.00 23 1014.1
20260510101635 66 81 3.0 4.0 0.00 0.00 0.00 26 1014.1
20260510100637 67 83 3.0 5.0 0.00 0.00 0.00 25 1013.9
20260510095629 67 80 2.0 3.0 0.00 0.00 0.00 24 1013.9
20260510094626 67 77 2.0 3.0 0.00 0.00 0.00 24 1013.8
20260510093640 67 74 0.0 2.0 0.00 0.00 0.00 24 1013.7
20260510092634 68 76 1.0 3.0 0.00 0.00 0.00 22 1013.5
20260510091625 69 96 2.0 4.0 0.00 0.00 0.00 22 1013.4
20260510085640 73 124 2.0 5.0 0.00 0.00 0.00 18 1013.4
20260510084637 74 46 0.0 4.0 0.00 0.00 0.00 17 1013.2
20260510083625 74 58 0.0 3.0 0.00 0.00 0.00 16 1013.0
20260510081640 75 355 1.0 2.0 0.00 0.00 0.00 16 1012.9
20260510080636 75 355 2.0 4.0 0.00 0.00 0.00 15 1013.0
20260510075636 75 304 3.0 7.0 0.00 0.00 0.00 15 1012.9
20260510074621 75 168 1.0 5.0 0.00 0.00 0.00 15 1012.9
20260510073637 74 153 3.0 5.0 0.00 0.00 0.00 16 1012.8
20260510072634 73 206 3.0 4.0 0.00 0.00 0.00 17 1012.8
20260510071633 72 146 2.0 7.0 0.00 0.00 0.00 17 1012.8
20260510070629 73 67 1.0 4.0 0.00 0.00 0.00 17 1012.9
20260510065636 73 69 0.0 2.0 0.00 0.00 0.00 16 1012.9
20260510064638 73 64 6.0 7.0 0.00 0.00 0.00 16 1012.9
20260510063634 74 123 4.0 5.0 0.00 0.00 0.00 16 1012.8
20260510062641 74 131 2.0 4.0 0.00 0.00 0.00 16 1012.8
20260510061639 74 138 2.0 4.0 0.00 0.00 0.00 15 1012.8
20260510060633 74 138 2.0 5.0 0.00 0.00 0.00 15 1012.8
20260510055734 74 156 2.0 5.0 0.00 0.00 0.00 15 1012.7
20260510054744 74 147 2.0 4.0 0.00 0.00 0.00 15 1012.8
20260510053741 75 135 3.0 6.0 0.00 0.00 0.00 14 1012.8
20260510052737 75 180 5.0 8.0 0.00 0.00 0.00 14 1012.8
20260510051739 76 162 2.0 6.0 0.00 0.00 0.00 14 1012.9
20260510050736 77 152 2.0 4.0 0.00 0.00 0.00 13 1012.9
20260510045725 78 171 3.0 5.0 0.00 0.00 0.00 12 1013.0
20260510044740 79 217 2.0 3.0 0.00 0.00 0.00 12 1012.2
20260510043737 80 223 3.0 8.0 0.00 0.00 0.00 11 1012.0
20260510042733 80 277 6.0 10.0 0.00 0.00 0.00 11 1012.1
20260510040742 80 280 5.0 9.0 0.00 0.00 0.00 11 1012.0
20260510035738 81 255 5.0 9.0 0.00 0.00 0.00 11 1011.8
20260510034736 81 205 4.0 9.0 0.00 0.00 0.00 11 1011.7
20260510033724 82 228 3.0 10.0 0.00 0.00 0.00 11 1011.5
20260510032737 82 265 4.0 8.0 0.00 0.00 0.00 10 1011.5
20260510031730 83 205 5.0 10.0 0.00 0.00 0.00 10 1011.4
20260510025743 84 234 8.0 12.0 0.00 0.00 0.00 10 1011.2
20260510024731 84 272 5.0 11.0 0.00 0.00 0.00 10 1011.0
20260510023726 84 239 7.0 11.0 0.00 0.00 0.00 10 1010.9
20260510022738 85 233 7.0 10.0 0.00 0.00 0.00 10 1010.7
20260510021735 85 229 5.0 10.0 0.00 0.00 0.00 10 1010.6
20260510014724 87 243 6.0 11.0 0.00 0.00 0.00 9 1010.2
20260510013738 88 247 7.0 12.0 0.00 0.00 0.00 9 1010.1
20260510012729 88 234 8.0 11.0 0.00 0.00 0.00 9 1010.0
20260510011727 89 198 5.0 10.0 0.00 0.00 0.00 9 1009.9
20260510010740 90 232 4.0 11.0 0.00 0.00 0.00 8 1009.9
20260510005731 91 163 7.0 12.0 0.00 0.00 0.00 8 1009.9
20260510002726 92 207 7.0 13.0 0.00 0.00 0.00 8 1009.9
20260510001723 92 259 4.0 13.0 0.00 0.00 0.00 8 1009.9
20260510000719 92 200 7.0 12.0 0.00 0.00 0.00 8 1009.9
20260509235726 93 186 5.0 12.0 0.00 0.00 0.00 8 1010.0
20260509233724 93 256 4.0 10.0 0.00 0.00 0.00 7 1010.3
20260509232718 93 201 6.0 11.0 0.00 0.00 0.00 7 1010.5
20260509231736 94 238 4.0 9.0 0.00 0.00 0.00 7 1010.5